{"data":{"norad_id":58199,"epoch":"2026-09-21T12:48:59.430816Z","epoch_age_seconds":149893,"freshness":"FRESH","line1":"1 58199U 23168A   26264.53402119  .00000214  00000+0  29569-4 0  9998","line2":"2 58199  97.8212 270.5441 0001571  89.8569 270.2828 14.87575825156929","mean_motion":14.87575825,"eccentricity":0.0001571,"inclination_deg":97.8212,"raan_deg":270.5441,"arg_perigee_deg":89.8569,"mean_anomaly_deg":270.2828,"bstar":2.9569e-5,"rev_number":15692,"period_min":96.801788238257,"perigee_km":604.41534934352,"apogee_km":606.60961201035,"semimajor_km":6983.6494806769,"source":"CELESTRAK","updated_at":"2026-09-22T09:00:26.537987Z"}}